Location: Las Casas Altas
(41.1864°N, 3.6831°W)
Time: 21:58:30
(UTC+00:00)

Daily predictions for brighter satellites

Satellite Brightness Start Highest point End
(mag) Time Altitude Azimuth Time Altitude Azimuth Time Altitude Azimuth
CZ-2D R/B 4.2 18:07:53 10° SE 18:11:14 29° ENE 18:14:39 10° N
Cosmos 1674 Rocket 3.9 18:08:08 10° SSE 18:12:16 45° E 18:16:29 10° NNE
Cosmos 2233 Rocket 4.3 18:06:23 10° N 18:12:24 46° ENE 18:18:24 10° SSE
Cosmos 2360 Rocket 3.7 18:08:42 10° NW 18:13:59 42° WSW 18:19:14 10° S
Meteor 1-11 4.3 18:10:00 10° S 18:15:28 61° E 18:21:04 10° NNE
Cosmos 1725 Rocket 4.0 18:11:09 10° N 18:17:24 74° E 18:23:40 10° SSE
Cosmos 1315 Rocket 2.9 18:14:31 10° N 18:18:10 45° ENE 18:21:49 10° SSE
Cosmos 1867 4.2 18:14:15 10° SW 18:19:35 60° NW 18:24:59 10° NNE
Lacrosse 5 rocket 2.9 18:21:12 10° W 18:24:01 23° NNW 18:26:57 10° NNE
SL-08 R/B 4.4 18:18:08 10° N 18:24:15 66° E 18:30:17 10° SSE
Atlas Centaur 2 4.0 18:17:56 10° SW 18:24:29 30° S 18:30:13 10° ESE
SAR-Lupe-1 4.0 18:21:45 10° SSE 18:25:17 71° ENE 18:28:51 10° N
Cosmos 2061 Rocket 4.2 18:21:24 10° N 18:27:38 53° ENE 18:33:44 10° SSE
Helios 1A Rocket 4.2 18:28:45 13° E 18:28:57 13° E 18:30:29 10° ESE
CZ-4C R/B 1.6 18:25:16 10° SW 18:29:14 83° NW 18:34:15 10° NNE
BlueWalker 3 3.1 18:29:07 10° WNW 18:32:28 39° SW 18:35:48 10° SSE
Radarsat Rocket 4.1 18:27:34 10° SE 18:33:12 54° ENE 18:39:08 10° N
Cosmos 2151 Rocket 3.6 18:28:45 10° N 18:33:13 64° E 18:37:40 10° SSE
CARTOSAT-1 4.0 18:29:23 10° SE 18:33:14 37° ENE 18:37:06 10° N
Meteor 2-1 Rocket 4.5 18:27:42 10° N 18:33:22 51° ENE 18:39:04 10° SSE
Tiangong -0.2 18:33:12 10° SSW 18:35:28 18° SSE 18:37:06 13° ESE
USA 290 3.6 18:34:15 10° SW 18:37:16 39° WNW 18:40:18 10° N
NOSS 0 Rocket 4.2 18:33:08 10° NNW 18:39:11 49° ENE 18:45:11 10° SE
Cosmos 1356 Rocket 3.2 18:36:52 10° N 18:40:48 73° E 18:44:45 10° SSE
SAR-Lupe-4 4.0 18:37:52 10° S 18:41:25 67° WSW 18:44:58 10° NNW
Cosmos 2297 Rocket 2.4 18:40:07 10° S 18:45:32 49° ESE 18:50:59 10° NE
Cosmos 1607 4.4 18:39:48 10° SW 18:45:51 63° NW 18:52:00 10° NNE
BREEZE-M DEB (TANK) 4.3 18:46:10 10° NW 18:49:45 45° NNE 18:56:52 17° E
Cosmos 1975 Rocket 4.2 18:46:49 10° SE 18:50:06 21° E 18:50:37 21° ENE
Cosmos 1455 Rocket 3.7 18:49:36 10° NNE 18:53:28 31° ENE 18:57:18 10° SE
Cosmos 2221 Rocket 3.5 18:50:20 10° S 18:54:46 81° E 18:59:16 10° N
YAOGAN 1 2.8 18:50:49 10° S 18:55:02 72° WSW 18:59:19 10° NNW
Cosmos 1125 Rocket 3.6 18:51:03 10° N 18:56:07 53° ENE 19:01:11 10° SE
Delta 2 Rocket 4.2 18:57:09 10° SW 18:59:42 23° SSE 19:00:40 20° SE
NOAA 6 3.9 18:56:15 10° SSE 19:01:22 76° ENE 19:06:31 10° N
YAOGAN 3 4.4 18:57:27 10° SSE 19:01:36 63° ENE 19:05:46 10° N
Okean 2 Rocket 3.1 18:58:00 10° N 19:02:24 81° W 19:06:46 10° S
Spot 4 Rocket 4.1 18:58:27 10° SSE 19:03:34 82° WSW 19:08:41 10° NNW
Cosmos 2208 Rocket 4.4 18:59:10 10° SSE 19:03:55 38° ESE 19:07:29 17° NE
Okean 1 Rocket 3.0 19:01:19 10° N 19:05:44 87° W 19:10:04 10° S
DMSP B5D1-3 4.4 19:01:44 10° NNE 19:06:51 75° ESE 19:11:57 10° S
NOSS 3-3 (C) 4.1 19:05:15 10° SW 19:10:17 60° NW 19:16:15 10° NNE
SL-19 R/B 4.5 19:05:23 10° SSE 19:11:39 89° ENE 19:17:42 10° NNW
Sich 1 Rocket 3.7 19:07:33 10° N 19:12:06 80° W 19:16:39 10° S
Meteor 2-17 Rocket 4.5 19:07:01 10° SSE 19:12:51 53° E 19:18:42 10° NNE
COSMOS 2428 3.0 19:07:45 10° NNW 19:13:27 72° WSW 19:19:08 10° SSE
Resurs 01 Rocket 1.5 19:11:29 10° SSE 19:15:52 84° ENE 19:20:16 10° N
Cosmos 1980 3.7 19:11:32 10° NNW 19:17:07 56° ENE 19:20:52 21° SE
Cosmos 2263 Rocket 3.8 19:14:57 10° SSE 19:16:37 16° SE 19:16:37 16° SE
Cosmos 44 Rocket 3.4 19:14:59 10° SSW 19:19:41 52° ESE 19:21:21 36° ENE
Cosmos 773 Rocket 4.0 19:16:02 10° S 19:21:10 60° ESE 19:25:06 17° NNE
USA 306 4.3 19:19:23 10° NNW 19:19:32 11° NNW 19:19:32 11° NNW
ATLAS 5 CENTAUR R/B 3.4 19:17:17 10° NW 19:21:35 37° WSW 19:26:46 10° S
Cosmos 2237 Rocket 2.2 19:17:08 10° NNW 19:22:44 57° ENE 19:25:52 26° SE
PSLV R/B 4.2 19:20:35 10° S 19:24:37 52° W 19:28:39 10° NNW
COSMO-SKYMED 1 4.1 19:21:24 10° N 19:25:08 34° WNW 19:28:51 10° SW
Aureole 3 Rocket 2.8 19:22:21 10° NNW 19:26:17 67° W 19:29:26 10° S
BREEZE-M DEB (TANK) 4.2 19:24:13 10° WNW 19:27:44 46° SW 19:33:13 12° SE
Cosmos 2228 4.4 19:23:48 10° N 19:25:37 23° NNE 19:25:37 23° NNE
Cosmos 836 Rocket 4.5 19:29:24 10° SSW 19:34:39 85° WNW 19:39:46 11° NNE
SJ-6B 2.7 19:39:27 63° SW 19:39:42 67° WSW 19:43:08 10° NNW
BREEZE-M DEB (TANK) 3.7 19:36:59 10° NW 19:41:29 89° SSW 19:46:30 27° SE
Cosmos 2227 Rocket 2.1 19:38:52 10° S 19:44:25 64° ESE 19:45:30 53° ENE
SPOT 5 3.5 19:47:23 41° NNE 19:47:23 41° NNE 19:50:53 10° N
SL-16 R/B 3.6 19:41:28 10° N 19:44:20 22° NNE 19:44:20 22° NNE
Cosmos 2285 Rocket 4.3 19:41:08 10° NNW 19:47:31 69° WSW 19:53:49 10° S
Cosmos 1816 Rocket 4.3 19:51:37 10° S 19:57:43 83° E 20:03:56 10° N
Gbstr 26 Del rocket 4.4 19:53:26 10° SSW 19:59:55 49° SE 19:59:55 49° SE
NOSS 3-4 (A) 3.8 19:54:14 10° NNW 20:01:08 68° NE 20:02:40 56° ESE
Helios 1A Rocket 4.4 20:02:00 27° W 20:02:00 27° W 20:04:12 10° SW
NOSS 3-4 (C) 3.8 19:54:30 10° NNW 20:01:25 67° NE 20:02:53 56° ESE
Cosmos 2034 Rocket 4.0 19:57:34 10° N 20:02:53 58° NE 20:02:53 58° NE
BREEZE-M DEB (TANK) 4.1 19:48:08 10° W 20:08:59 68° NNW 20:10:46 51° NE
Tiangong 1.0 20:08:55 10° WSW 20:09:25 14° WSW 20:09:25 14° WSW
Atlas Centaur 2 3.5 20:06:14 10° WSW 20:12:28 32° S 20:12:54 31° S
CZ-4C R/B 4.4 20:15:47 10° WNW 20:18:33 15° NNW 20:21:07 11° N
CSL-04 Rocket 4.2 20:29:01 54° WNW 20:29:01 54° WNW 20:33:35 10° NNW
BREEZE-M (TANK) 3.8 20:25:00 10° WNW 20:28:32 71° SW 20:28:32 71° SW
Cosmos 2297 Rocket 4.1 20:25:10 10° WSW 20:29:48 26° NW 20:34:29 10° N
Cosmos 2344 3.8 20:53:23 10° SW 21:01:17 60° NW 21:01:17 60° NW
Cosmos 2263 Rocket 4.4 20:57:11 10° SW 20:58:24 17° SW 20:58:24 17° SW
Cosmos 2237 Rocket 4.4 21:02:16 10° NW 21:06:15 20° W 21:07:48 18° WSW
